TimeCDT,TemperatureF,Dew PointF,Humidity,Sea Level PressureIn,VisibilityMPH,Wind Direction,Wind SpeedMPH,Gust SpeedMPH,PrecipitationIn,Events,Conditions,WindDirDegrees,DateUTC
12:56 AM,71.1,62.1,73,30.09,10.0,SSE,8.1,-,N/A,,Partly Cloudy,150,2013-09-05 05:56:00
1:56 AM,71.1,62.1,73,30.11,10.0,SSE,5.8,-,N/A,,Overcast,160,2013-09-05 06:56:00
2:56 AM,70.0,62.1,76,30.10,10.0,SSE,6.9,-,N/A,,Mostly Cloudy,160,2013-09-05 07:56:00
3:56 AM,69.1,61.0,75,30.09,10.0,SE,6.9,-,N/A,,Overcast,140,2013-09-05 08:56:00
4:56 AM,70.0,60.1,71,30.10,10.0,South,10.4,-,N/A,,Overcast,170,2013-09-05 09:56:00
5:56 AM,69.1,60.1,73,30.10,10.0,SSE,10.4,-,N/A,,Scattered Clouds,150,2013-09-05 10:56:00
6:56 AM,69.1,60.1,73,30.11,10.0,SE,9.2,-,N/A,,Mostly Cloudy,130,2013-09-05 11:56:00
7:56 AM,70.0,60.1,71,30.12,10.0,SE,10.4,-,N/A,,Clear,130,2013-09-05 12:56:00
8:56 AM,73.0,61.0,66,30.14,10.0,SE,12.7,-,N/A,,Clear,140,2013-09-05 13:56:00
9:56 AM,77.0,61.0,58,30.14,10.0,SSE,12.7,21.9,N/A,,Clear,150,2013-09-05 14:56:00
10:56 AM,79.0,61.0,54,30.13,10.0,SSE,15.0,-,N/A,,Clear,160,2013-09-05 15:56:00
11:56 AM,81.0,62.1,52,30.15,10.0,South,15.0,21.9,N/A,,Clear,180,2013-09-05 16:56:00
12:56 PM,82.9,63.0,51,30.13,10.0,SSE,16.1,-,N/A,Thunderstorm,Clear,160,2013-09-05 17:56:00
1:46 PM,80.6,64.4,58,30.11,10.0,South,17.3,25.3,0.00,,Scattered Clouds,190,2013-09-05 18:46:00
1:56 PM,80.1,64.0,58,30.08,10.0,South,18.4,25.3,0.00,,Partly Cloudy,170,2013-09-05 18:56:00
2:56 PM,81.0,64.0,56,30.09,10.0,SSE,13.8,20.7,N/A,,Clear,160,2013-09-05 19:56:00
3:56 PM,84.0,62.1,47,30.07,10.0,South,15.0,-,N/A,,Partly Cloudy,170,2013-09-05 20:56:00
4:56 PM,82.0,63.0,52,30.09,10.0,SSE,9.2,-,N/A,,Overcast,150,2013-09-05 21:56:00
5:56 PM,81.0,63.0,54,30.10,10.0,ESE,9.2,-,N/A,,Partly Cloudy,110,2013-09-05 22:56:00
6:56 PM,79.0,64.0,60,30.09,10.0,ESE,10.4,-,N/A,,Clear,120,2013-09-05 23:56:00
7:56 PM,75.9,66.0,71,30.08,10.0,SE,10.4,-,N/A,,Clear,130,2013-09-06 00:56:00
8:56 PM,75.0,61.0,62,30.07,10.0,SE,11.5,-,N/A,,Partly Cloudy,130,2013-09-06 01:56:00
9:56 PM,73.9,61.0,64,30.06,10.0,SSE,15.0,-,N/A,,Clear,160,2013-09-06 02:56:00
10:56 PM,73.0,61.0,66,30.04,10.0,South,16.1,23.0,N/A,,Clear,180,2013-09-06 03:56:00
11:56 PM,73.0,61.0,66,30.04,10.0,South,15.0,23.0,N/A,,Clear,180,2013-09-06 04:56:00